TimeEDT,TemperatureF,Dew PointF,Humidity,Sea Level PressureIn,VisibilityMPH,Wind Direction,Wind SpeedMPH,Gust SpeedMPH,PrecipitationIn,Events,Conditions,WindDirDegrees,DateUTC
12:53 AM,63.0,57.9,84,30.08,10.0,Calm,Calm,-,N/A,,Clear,0,2013-10-04 04:53:00
1:53 AM,64.0,59.0,84,30.07,10.0,Calm,Calm,-,N/A,,Mostly Cloudy,0,2013-10-04 05:53:00
2:53 AM,64.0,59.0,84,30.06,10.0,Calm,Calm,-,N/A,,Clear,0,2013-10-04 06:53:00
3:53 AM,62.1,59.0,90,30.05,10.0,Calm,Calm,-,N/A,,Clear,0,2013-10-04 07:53:00
4:53 AM,61.0,57.9,90,30.06,10.0,Calm,Calm,-,N/A,,Clear,0,2013-10-04 08:53:00
5:53 AM,60.1,57.9,93,30.06,10.0,Calm,Calm,-,N/A,,Clear,0,2013-10-04 09:53:00
6:53 AM,61.0,57.9,90,30.06,10.0,Calm,Calm,-,N/A,,Mostly Cloudy,0,2013-10-04 10:53:00
7:53 AM,63.0,60.1,90,30.06,9.0,South,3.5,-,N/A,,Clear,170,2013-10-04 11:53:00
8:53 AM,68.0,62.1,81,30.07,9.0,SSW,4.6,-,N/A,,Clear,210,2013-10-04 12:53:00
9:53 AM,72.0,63.0,73,30.06,9.0,SSW,5.8,-,N/A,,Overcast,210,2013-10-04 13:53:00
10:53 AM,75.0,64.0,69,30.06,9.0,SW,6.9,-,N/A,,Overcast,220,2013-10-04 14:53:00
11:53 AM,78.1,64.9,64,30.05,10.0,South,6.9,-,N/A,,Mostly Cloudy,190,2013-10-04 15:53:00
12:53 PM,81.0,64.0,56,30.02,10.0,SW,10.4,-,N/A,,Clear,220,2013-10-04 16:53:00
1:53 PM,81.0,63.0,54,30.00,10.0,SSW,11.5,-,N/A,,Partly Cloudy,210,2013-10-04 17:53:00
2:53 PM,82.0,63.0,52,29.99,10.0,SSW,12.7,-,N/A,,Clear,210,2013-10-04 18:53:00
3:53 PM,79.0,63.0,58,29.99,10.0,South,12.7,-,N/A,,Scattered Clouds,190,2013-10-04 19:53:00
4:53 PM,77.0,63.0,62,29.99,10.0,SSW,11.5,-,N/A,,Partly Cloudy,210,2013-10-04 20:53:00
5:53 PM,73.0,63.0,71,30.01,10.0,Calm,Calm,-,N/A,,Overcast,0,2013-10-04 21:53:00
6:53 PM,73.0,63.0,71,30.01,10.0,South,3.5,-,N/A,,Partly Cloudy,190,2013-10-04 22:53:00
7:53 PM,72.0,62.1,71,30.01,10.0,SSW,5.8,-,N/A,,Mostly Cloudy,210,2013-10-04 23:53:00
8:53 PM,71.1,62.1,73,30.02,10.0,Calm,Calm,-,N/A,,Clear,0,2013-10-05 00:53:00
9:53 PM,69.1,63.0,81,30.03,10.0,Calm,Calm,-,N/A,,Clear,0,2013-10-05 01:53:00
10:53 PM,66.0,64.0,93,30.02,7.0,Calm,Calm,-,N/A,,Clear,0,2013-10-05 02:53:00
11:53 PM,66.0,64.0,93,30.01,6.0,NNE,4.6,-,N/A,,Clear,20,2013-10-05 03:53:00